Year,Month,Day,Hour,Minute,Value (Times are PST for windspeed in km/hr)
2012,01,23,00,00,0.00
2012,01,23,00,01,0.50
2012,01,23,00,02,2.30
2012,01,23,00,03,1.10
2012,01,23,00,04,0.00
2012,01,23,00,05,0.00
2012,01,23,00,06,0.00
2012,01,23,00,07,0.00
2012,01,23,00,08,0.00
2012,01,23,00,09,1.60
2012,01,23,00,10,2.40
2012,01,23,00,11,4.20
2012,01,23,00,12,5.30
2012,01,23,00,13,3.80
2012,01,23,00,14,3.70
2012,01,23,00,15,3.00
2012,01,23,00,16,1.70
2012,01,23,00,17,0.00
2012,01,23,00,18,0.00
2012,01,23,00,19,0.00
2012,01,23,00,20,0.00
2012,01,23,00,21,0.00
2012,01,23,00,22,0.00
2012,01,23,00,23,0.90
2012,01,23,00,24,2.40
2012,01,23,00,25,3.30
2012,01,23,00,26,2.70
2012,01,23,00,27,3.70
2012,01,23,00,28,3.50
2012,01,23,00,29,7.10
2012,01,23,00,30,6.30
2012,01,23,00,31,6.90
2012,01,23,00,32,2.60
2012,01,23,00,33,6.60
2012,01,23,00,34,8.40
2012,01,23,00,35,9.90
2012,01,23,00,36,9.00
2012,01,23,00,37,12.90
2012,01,23,00,38,9.00
2012,01,23,00,39,9.10
2012,01,23,00,40,14.90
2012,01,23,00,41,15.00
2012,01,23,00,42,8.20
2012,01,23,00,43,7.30
2012,01,23,00,44,6.50
2012,01,23,00,45,11.10
2012,01,23,00,46,14.30
2012,01,23,00,47,11.30
2012,01,23,00,48,9.20
2012,01,23,00,49,6.60
2012,01,23,00,50,7.10
2012,01,23,00,51,10.40
2012,01,23,00,52,10.10
2012,01,23,00,53,15.30
2012,01,23,00,54,16.60
2012,01,23,00,55,12.90
2012,01,23,00,56,16.00
2012,01,23,00,57,13.40
2012,01,23,00,58,15.50
2012,01,23,00,59,17.40
2012,01,23,01,00,17.10
2012,01,23,01,01,15.30
2012,01,23,01,02,22.20
2012,01,23,01,03,18.20
2012,01,23,01,04,22.40
2012,01,23,01,05,17.50
2012,01,23,01,06,22.90
2012,01,23,01,07,23.30
2012,01,23,01,08,16.20
2012,01,23,01,09,13.40
2012,01,23,01,10,16.20
2012,01,23,01,11,16.00
2012,01,23,01,12,17.70
2012,01,23,01,13,18.80
2012,01,23,01,14,20.70
2012,01,23,01,15,15.20
2012,01,23,01,16,13.10
2012,01,23,01,17,15.50
2012,01,23,01,18,17.90
2012,01,23,01,19,20.50
2012,01,23,01,20,18.10
2012,01,23,01,21,11.10
2012,01,23,01,22,10.50
2012,01,23,01,23,9.50
2012,01,23,01,24,13.10
2012,01,23,01,25,13.50
2012,01,23,01,26,14.60
2012,01,23,01,27,19.20
2012,01,23,01,28,12.00
2012,01,23,01,29,9.10
2012,01,23,01,30,9.40
2012,01,23,01,31,7.00
2012,01,23,01,32,8.10
2012,01,23,01,33,7.70
2012,01,23,01,34,7.60
2012,01,23,01,35,8.60
2012,01,23,01,36,9.10
2012,01,23,01,37,7.10
2012,01,23,01,38,7.10
2012,01,23,01,39,9.30
2012,01,23,01,40,8.60
2012,01,23,01,41,6.90
2012,01,23,01,42,5.60
2012,01,23,01,43,6.00
2012,01,23,01,44,5.30
2012,01,23,01,45,6.30
2012,01,23,01,46,8.00
2012,01,23,01,47,7.90
2012,01,23,01,48,9.10
2012,01,23,01,49,12.20
2012,01,23,01,50,13.00
2012,01,23,01,51,9.10
2012,01,23,01,52,10.10
2012,01,23,01,53,12.20
2012,01,23,01,54,8.90
2012,01,23,01,55,10.10
2012,01,23,01,56,10.30
2012,01,23,01,57,8.60
2012,01,23,01,58,11.70
2012,01,23,01,59,10.90
2012,01,23,02,00,6.30
2012,01,23,02,01,9.10
2012,01,23,02,02,11.70
2012,01,23,02,03,9.70
2012,01,23,02,04,3.00
2012,01,23,02,05,3.90
2012,01,23,02,06,7.90
2012,01,23,02,07,13.00
2012,01,23,02,08,10.80
2012,01,23,02,09,10.20
2012,01,23,02,10,11.60
2012,01,23,02,11,13.40
2012,01,23,02,12,11.80
2012,01,23,02,13,13.80
2012,01,23,02,14,10.90
2012,01,23,02,15,12.40
2012,01,23,02,16,8.30
2012,01,23,02,17,10.40
2012,01,23,02,18,6.90
2012,01,23,02,19,9.30
2012,01,23,02,20,14.90
2012,01,23,02,21,18.90
2012,01,23,02,22,13.00
2012,01,23,02,23,7.20
2012,01,23,02,24,12.00
2012,01,23,02,25,11.50
2012,01,23,02,26,9.40
2012,01,23,02,27,8.80
2012,01,23,02,28,4.70
2012,01,23,02,29,6.90
2012,01,23,02,30,7.30
2012,01,23,02,31,5.10
2012,01,23,02,32,5.10
2012,01,23,02,33,5.30
2012,01,23,02,34,4.80
2012,01,23,02,35,3.10
2012,01,23,02,36,4.70
2012,01,23,02,37,6.10
2012,01,23,02,38,6.20
2012,01,23,02,39,2.50
2012,01,23,02,40,4.10
2012,01,23,02,41,3.80
2012,01,23,02,42,4.00
2012,01,23,02,43,4.60
2012,01,23,02,44,2.70
2012,01,23,02,45,4.30
2012,01,23,02,46,7.00
2012,01,23,02,47,6.10
2012,01,23,02,48,1.50
2012,01,23,02,49,0.90
2012,01,23,02,50,0.00
2012,01,23,02,51,0.00
2012,01,23,02,52,0.80
2012,01,23,02,53,2.50
2012,01,23,02,54,1.40
2012,01,23,02,55,0.00
2012,01,23,02,56,0.00
2012,01,23,02,57,0.00
2012,01,23,02,58,0.00
2012,01,23,02,59,0.00
2012,01,23,03,00,0.00
2012,01,23,03,01,0.00
2012,01,23,03,02,0.00
2012,01,23,03,03,0.00
2012,01,23,03,04,0.00
2012,01,23,03,05,0.00
2012,01,23,03,06,0.00
2012,01,23,03,07,0.00
2012,01,23,03,08,0.00
2012,01,23,03,09,0.00
2012,01,23,03,10,0.00
2012,01,23,03,11,0.00
2012,01,23,03,12,0.00
2012,01,23,03,13,0.00
2012,01,23,03,14,0.00
2012,01,23,03,15,0.00
2012,01,23,03,16,0.00
2012,01,23,03,17,1.10
2012,01,23,03,18,3.80
2012,01,23,03,19,4.40
2012,01,23,03,20,2.40
2012,01,23,03,21,1.90
2012,01,23,03,22,2.10
2012,01,23,03,23,0.00
2012,01,23,03,24,0.00
2012,01,23,03,25,0.00
2012,01,23,03,26,0.00
2012,01,23,03,27,0.00
2012,01,23,03,28,0.00
2012,01,23,03,29,0.00
2012,01,23,03,30,0.00
2012,01,23,03,31,0.00
2012,01,23,03,32,0.00
2012,01,23,03,33,0.00
2012,01,23,03,34,0.00
2012,01,23,03,35,0.60
2012,01,23,03,36,5.40
2012,01,23,03,37,0.80
2012,01,23,03,38,7.60
2012,01,23,03,39,4.50
2012,01,23,03,40,9.40
2012,01,23,03,41,5.80
2012,01,23,03,42,4.30
2012,01,23,03,43,3.10
2012,01,23,03,44,2.50
2012,01,23,03,45,0.40
2012,01,23,03,46,0.00
2012,01,23,03,47,0.00
2012,01,23,03,48,0.00
2012,01,23,03,49,0.00
2012,01,23,03,50,2.10
2012,01,23,03,51,2.30
2012,01,23,03,52,0.00
2012,01,23,03,53,0.80
2012,01,23,03,54,0.00
2012,01,23,03,55,2.30
2012,01,23,03,56,2.50
2012,01,23,03,57,4.00
2012,01,23,03,58,0.80
2012,01,23,03,59,2.30
2012,01,23,04,00,0.80
2012,01,23,04,01,0.20
2012,01,23,04,02,0.00
2012,01,23,04,03,0.10
2012,01,23,04,04,0.00
2012,01,23,04,05,0.00
2012,01,23,04,06,0.00
2012,01,23,04,07,0.20
2012,01,23,04,08,0.00
2012,01,23,04,09,0.00
2012,01,23,04,10,0.00
2012,01,23,04,11,0.00
2012,01,23,04,12,0.60
2012,01,23,04,13,0.20
2012,01,23,04,14,2.10
2012,01,23,04,15,2.30
2012,01,23,04,16,1.40
2012,01,23,04,17,0.00
2012,01,23,04,18,1.00
2012,01,23,04,19,1.10
2012,01,23,04,20,0.30
2012,01,23,04,21,0.00
2012,01,23,04,22,0.00
2012,01,23,04,23,0.00
2012,01,23,04,24,0.00
2012,01,23,04,25,0.00
2012,01,23,04,26,0.00
2012,01,23,04,27,0.00
2012,01,23,04,28,0.00
2012,01,23,04,29,0.00
2012,01,23,04,30,0.00
2012,01,23,04,31,0.00
2012,01,23,04,32,0.00
2012,01,23,04,33,0.00
2012,01,23,04,34,0.00
2012,01,23,04,35,0.00
2012,01,23,04,36,0.00
2012,01,23,04,37,0.00
2012,01,23,04,38,0.00
2012,01,23,04,39,0.60
2012,01,23,04,40,2.60
2012,01,23,04,41,2.00
2012,01,23,04,42,0.30
2012,01,23,04,43,2.20
2012,01,23,04,44,2.00
2012,01,23,04,45,2.50
2012,01,23,04,46,0.60
2012,01,23,04,47,1.40
2012,01,23,04,48,0.60
2012,01,23,04,49,0.00
2012,01,23,04,50,0.00
2012,01,23,04,51,0.00
2012,01,23,04,52,0.00
2012,01,23,04,53,0.00
2012,01,23,04,54,0.00
2012,01,23,04,55,0.40
2012,01,23,04,56,0.60
2012,01,23,04,57,5.40
2012,01,23,04,58,6.50
2012,01,23,04,59,5.40
2012,01,23,05,00,6.10
2012,01,23,05,01,5.60
2012,01,23,05,02,4.60
2012,01,23,05,03,4.80
2012,01,23,05,04,4.40
2012,01,23,05,05,3.90
2012,01,23,05,06,2.70
2012,01,23,05,07,5.70
2012,01,23,05,08,4.20
2012,01,23,05,09,5.60
2012,01,23,05,10,6.30
2012,01,23,05,11,6.80
2012,01,23,05,12,6.00
2012,01,23,05,13,5.10
2012,01,23,05,14,5.30
2012,01,23,05,15,3.50
2012,01,23,05,16,0.00
2012,01,23,05,17,0.50
2012,01,23,05,18,0.10
2012,01,23,05,19,0.30
2012,01,23,05,20,2.00
2012,01,23,05,21,0.30
2012,01,23,05,22,0.20
2012,01,23,05,23,0.00
2012,01,23,05,24,0.10
2012,01,23,05,25,1.00
2012,01,23,05,26,2.30
2012,01,23,05,27,2.50
2012,01,23,05,28,3.70
2012,01,23,05,29,4.10
2012,01,23,05,30,4.80
2012,01,23,05,31,7.10
2012,01,23,05,32,5.10
2012,01,23,05,33,3.20
2012,01,23,05,34,4.40
2012,01,23,05,35,6.10
2012,01,23,05,36,7.90
2012,01,23,05,37,6.10
2012,01,23,05,38,6.40
2012,01,23,05,39,4.90
2012,01,23,05,40,5.70
2012,01,23,05,41,4.40
2012,01,23,05,42,3.50
2012,01,23,05,43,2.10
2012,01,23,05,44,2.90
2012,01,23,05,45,1.10
2012,01,23,05,46,0.00
2012,01,23,05,47,1.90
2012,01,23,05,48,3.70
2012,01,23,05,49,4.30
2012,01,23,05,50,3.50
2012,01,23,05,51,1.80
2012,01,23,05,52,2.10
2012,01,23,05,53,1.80
2012,01,23,05,54,0.00
2012,01,23,05,55,0.00
2012,01,23,05,56,0.00
2012,01,23,05,57,0.00
2012,01,23,05,58,0.00
2012,01,23,05,59,0.00
2012,01,23,06,00,1.50
2012,01,23,06,01,0.00
2012,01,23,06,02,0.00
2012,01,23,06,03,0.00
2012,01,23,06,04,0.00
2012,01,23,06,05,0.00
2012,01,23,06,06,0.00
2012,01,23,06,07,0.00
2012,01,23,06,08,0.00
2012,01,23,06,09,0.00
2012,01,23,06,10,0.00
2012,01,23,06,11,0.00
2012,01,23,06,12,0.00
2012,01,23,06,13,2.40
2012,01,23,06,14,5.60
2012,01,23,06,15,7.90
2012,01,23,06,16,7.40
2012,01,23,06,17,6.70
2012,01,23,06,18,4.70
2012,01,23,06,19,3.40
2012,01,23,06,20,2.40
2012,01,23,06,21,5.00
2012,01,23,06,22,5.20
2012,01,23,06,23,4.20
2012,01,23,06,24,3.70
2012,01,23,06,25,3.10
2012,01,23,06,26,1.00
2012,01,23,06,27,1.80
2012,01,23,06,28,3.70
2012,01,23,06,29,3.40
2012,01,23,06,30,1.60
2012,01,23,06,31,0.00
2012,01,23,06,32,0.00
2012,01,23,06,33,1.80
2012,01,23,06,34,0.90
2012,01,23,06,35,4.10
2012,01,23,06,36,4.70
2012,01,23,06,37,6.00
2012,01,23,06,38,6.90
2012,01,23,06,39,7.70
2012,01,23,06,40,5.70
2012,01,23,06,41,5.20
2012,01,23,06,42,4.00
2012,01,23,06,43,1.70
2012,01,23,06,44,3.70
2012,01,23,06,45,2.20
2012,01,23,06,46,1.10
2012,01,23,06,47,1.70
2012,01,23,06,48,1.20
2012,01,23,06,49,4.10
2012,01,23,06,50,1.50
2012,01,23,06,51,0.00
2012,01,23,06,52,0.00
2012,01,23,06,53,0.00
2012,01,23,06,54,0.00
2012,01,23,06,55,0.00
2012,01,23,06,56,3.00
2012,01,23,06,57,3.20
2012,01,23,06,58,4.70
2012,01,23,06,59,3.90
2012,01,23,07,00,3.90
2012,01,23,07,01,2.30
2012,01,23,07,02,0.80
2012,01,23,07,03,0.00
2012,01,23,07,04,0.00
2012,01,23,07,05,0.00
2012,01,23,07,06,0.80
2012,01,23,07,07,1.80
2012,01,23,07,08,3.00
2012,01,23,07,09,3.60
2012,01,23,07,10,5.80
2012,01,23,07,11,4.40
2012,01,23,07,12,3.50
2012,01,23,07,13,3.60
2012,01,23,07,14,4.20
2012,01,23,07,15,3.10
2012,01,23,07,16,4.70
2012,01,23,07,17,3.10
2012,01,23,07,18,4.70
2012,01,23,07,19,5.00
2012,01,23,07,20,4.90
2012,01,23,07,21,3.80
2012,01,23,07,22,1.90
2012,01,23,07,23,1.40
2012,01,23,07,24,0.00
2012,01,23,07,25,3.40
2012,01,23,07,26,4.80
2012,01,23,07,27,3.50
2012,01,23,07,28,1.80
2012,01,23,07,29,3.50
2012,01,23,07,30,3.50
2012,01,23,07,31,3.30
2012,01,23,07,32,3.90
2012,01,23,07,33,4.70
2012,01,23,07,34,3.90
2012,01,23,07,35,2.50
2012,01,23,07,36,0.00
2012,01,23,07,37,0.00
2012,01,23,07,38,0.00
2012,01,23,07,39,0.00
2012,01,23,07,40,0.00
2012,01,23,07,41,0.00
2012,01,23,07,42,0.00
2012,01,23,07,43,0.00
2012,01,23,07,44,1.90
2012,01,23,07,45,1.80
2012,01,23,07,46,3.30
2012,01,23,07,47,2.70
2012,01,23,07,48,1.50
2012,01,23,07,49,2.30
2012,01,23,07,50,4.70
2012,01,23,07,51,2.70
2012,01,23,07,52,3.90
2012,01,23,07,53,5.60
2012,01,23,07,54,3.80
2012,01,23,07,55,3.60
2012,01,23,07,56,3.30
2012,01,23,07,57,2.50
2012,01,23,07,58,2.50
2012,01,23,07,59,2.30
2012,01,23,08,00,0.30
2012,01,23,08,01,0.30
2012,01,23,08,02,2.10
2012,01,23,08,03,2.90
2012,01,23,08,04,0.10
2012,01,23,08,05,0.00
2012,01,23,08,06,0.00
2012,01,23,08,07,0.00
2012,01,23,08,08,0.00
2012,01,23,08,09,1.40
2012,01,23,08,10,0.00
2012,01,23,08,11,0.00
2012,01,23,08,12,0.00
2012,01,23,08,13,0.00
2012,01,23,08,14,0.10
2012,01,23,08,15,1.40
2012,01,23,08,16,0.00
2012,01,23,08,17,0.00
2012,01,23,08,18,0.00
2012,01,23,08,19,1.10
2012,01,23,08,20,3.70
2012,01,23,08,21,5.30
2012,01,23,08,22,4.00
2012,01,23,08,23,3.20
2012,01,23,08,24,1.00
2012,01,23,08,25,0.00
2012,01,23,08,26,0.00
2012,01,23,08,27,0.10
2012,01,23,08,28,0.00
2012,01,23,08,29,0.00
2012,01,23,08,30,0.10
2012,01,23,08,31,0.00
2012,01,23,08,32,0.00
2012,01,23,08,33,2.30
2012,01,23,08,34,2.80
2012,01,23,08,35,4.20
2012,01,23,08,36,4.30
2012,01,23,08,37,3.20
2012,01,23,08,38,2.40
2012,01,23,08,39,0.90
2012,01,23,08,40,0.30
2012,01,23,08,41,0.30
2012,01,23,08,42,0.00
2012,01,23,08,43,0.00
2012,01,23,08,44,0.20
2012,01,23,08,45,1.90
2012,01,23,08,46,1.00
2012,01,23,08,47,0.00
2012,01,23,08,48,0.00
2012,01,23,08,49,0.00
2012,01,23,08,50,1.40
2012,01,23,08,51,0.40
2012,01,23,08,52,0.00
2012,01,23,08,53,0.00
2012,01,23,08,54,0.50
2012,01,23,08,55,0.00
2012,01,23,08,56,1.00
2012,01,23,08,57,4.30
2012,01,23,08,58,5.00
2012,01,23,08,59,4.60
2012,01,23,09,00,4.10
2012,01,23,09,01,5.10
2012,01,23,09,02,7.80
2012,01,23,09,03,7.70
2012,01,23,09,04,7.00
2012,01,23,09,05,5.30
2012,01,23,09,06,5.60
2012,01,23,09,07,7.00
2012,01,23,09,08,9.00
2012,01,23,09,09,9.30
2012,01,23,09,10,8.00
2012,01,23,09,11,7.20
2012,01,23,09,12,9.00
2012,01,23,09,13,14.20
2012,01,23,09,14,8.50
2012,01,23,09,15,9.20
2012,01,23,09,16,7.60
2012,01,23,09,17,6.80
2012,01,23,09,18,8.80
2012,01,23,09,19,7.80
2012,01,23,09,20,4.20
2012,01,23,09,21,6.80
2012,01,23,09,22,3.00
2012,01,23,09,23,7.40
2012,01,23,09,24,5.00
2012,01,23,09,25,5.10
2012,01,23,09,26,5.40
2012,01,23,09,27,5.30
2012,01,23,09,28,5.60
2012,01,23,09,29,11.10
2012,01,23,09,30,9.10
2012,01,23,09,31,9.90
2012,01,23,09,32,7.80
2012,01,23,09,33,8.90
2012,01,23,09,34,10.70
2012,01,23,09,35,7.40
2012,01,23,09,36,5.50
2012,01,23,09,37,10.50
2012,01,23,09,38,9.30
2012,01,23,09,39,7.60
2012,01,23,09,40,12.30
2012,01,23,09,41,13.70
2012,01,23,09,42,11.20
2012,01,23,09,43,6.80
2012,01,23,09,44,9.70
2012,01,23,09,45,12.70
2012,01,23,09,46,7.80
2012,01,23,09,47,10.70
2012,01,23,09,48,9.30
2012,01,23,09,49,7.50
2012,01,23,09,50,3.60
2012,01,23,09,51,6.60
2012,01,23,09,52,5.80
2012,01,23,09,53,3.50
2012,01,23,09,54,4.60
2012,01,23,09,55,3.10
2012,01,23,09,56,7.20
2012,01,23,09,57,7.80
2012,01,23,09,58,4.90
2012,01,23,09,59,3.40
2012,01,23,10,00,4.80
2012,01,23,10,01,6.00
2012,01,23,10,02,13.80
2012,01,23,10,03,11.40
2012,01,23,10,04,9.60
2012,01,23,10,05,5.10
2012,01,23,10,06,4.10
2012,01,23,10,07,7.60
2012,01,23,10,08,6.20
2012,01,23,10,09,12.10
2012,01,23,10,10,9.40
2012,01,23,10,11,7.20
2012,01,23,10,12,4.30
2012,01,23,10,13,2.70
2012,01,23,10,14,7.70
2012,01,23,10,15,6.50
2012,01,23,10,16,8.60
2012,01,23,10,17,8.90
2012,01,23,10,18,5.40
2012,01,23,10,19,8.60
2012,01,23,10,20,10.40
2012,01,23,10,21,4.90
2012,01,23,10,22,4.00
2012,01,23,10,23,5.50
2012,01,23,10,24,4.90
2012,01,23,10,25,6.70
2012,01,23,10,26,6.00
2012,01,23,10,27,6.90
2012,01,23,10,28,6.50
2012,01,23,10,29,6.30
2012,01,23,10,30,6.40
2012,01,23,10,31,3.80
2012,01,23,10,32,8.30
2012,01,23,10,33,9.80
2012,01,23,10,34,5.50
2012,01,23,10,35,6.80
2012,01,23,10,36,1.30
2012,01,23,10,37,7.00
2012,01,23,10,38,3.50
2012,01,23,10,39,2.60
2012,01,23,10,40,1.40
2012,01,23,10,41,4.10
2012,01,23,10,42,8.90
2012,01,23,10,43,8.40
2012,01,23,10,44,7.40
2012,01,23,10,45,8.10
2012,01,23,10,46,7.10
2012,01,23,10,47,4.70
2012,01,23,10,48,0.50
2012,01,23,10,49,3.80
2012,01,23,10,50,5.10
2012,01,23,10,51,5.60
2012,01,23,10,52,4.50
2012,01,23,10,53,5.50
2012,01,23,10,54,4.40
2012,01,23,10,55,1.90
2012,01,23,10,56,6.70
2012,01,23,10,57,4.70
2012,01,23,10,58,5.20
2012,01,23,10,59,3.80
2012,01,23,11,00,1.50
2012,01,23,11,01,4.60
2012,01,23,11,02,2.30
2012,01,23,11,03,7.20
2012,01,23,11,04,4.50
2012,01,23,11,05,3.50
2012,01,23,11,06,5.90
2012,01,23,11,07,2.60
2012,01,23,11,08,7.60
2012,01,23,11,09,7.30
2012,01,23,11,10,5.60
2012,01,23,11,11,5.70
2012,01,23,11,12,4.30
2012,01,23,11,13,8.10
2012,01,23,11,14,3.90
2012,01,23,11,15,2.50
2012,01,23,11,16,2.50
2012,01,23,11,17,1.50
2012,01,23,11,18,0.20
2012,01,23,11,19,1.00
2012,01,23,11,20,1.40
2012,01,23,11,21,4.70
2012,01,23,11,22,6.40
2012,01,23,11,23,3.40
2012,01,23,11,24,2.70
2012,01,23,11,25,5.80
2012,01,23,11,26,3.90
2012,01,23,11,27,3.60
2012,01,23,11,28,6.90
2012,01,23,11,29,6.20
2012,01,23,11,30,3.30
2012,01,23,11,31,5.80
2012,01,23,11,32,12.90
2012,01,23,11,33,9.90
2012,01,23,11,34,7.40
2012,01,23,11,35,9.10
2012,01,23,11,36,9.50
2012,01,23,11,37,9.30
2012,01,23,11,38,8.90
2012,01,23,11,39,8.10
2012,01,23,11,40,10.90
2012,01,23,11,41,9.20
2012,01,23,11,42,7.40
2012,01,23,11,43,3.30
2012,01,23,11,44,7.90
2012,01,23,11,45,7.90
2012,01,23,11,46,10.90
2012,01,23,11,47,6.20
2012,01,23,11,48,7.10
2012,01,23,11,49,7.20
2012,01,23,11,50,6.50
2012,01,23,11,51,3.10
2012,01,23,11,52,2.60
2012,01,23,11,53,6.70
2012,01,23,11,54,8.80
2012,01,23,11,55,6.80
2012,01,23,11,56,4.90
2012,01,23,11,57,6.40
2012,01,23,11,58,7.70
2012,01,23,11,59,9.50
2012,01,23,12,00,9.90
2012,01,23,12,01,5.10
2012,01,23,12,02,9.80
2012,01,23,12,03,7.30
2012,01,23,12,04,6.00
2012,01,23,12,05,6.40
2012,01,23,12,06,8.80
2012,01,23,12,07,9.20
2012,01,23,12,08,11.00
2012,01,23,12,09,8.70
2012,01,23,12,10,11.90
2012,01,23,12,11,8.60
2012,01,23,12,12,8.10
2012,01,23,12,13,8.50
2012,01,23,12,14,6.40
2012,01,23,12,15,5.30
2012,01,23,12,16,11.80
2012,01,23,12,17,9.10
2012,01,23,12,18,6.80
2012,01,23,12,19,7.40
2012,01,23,12,20,5.30
2012,01,23,12,21,11.70
2012,01,23,12,22,8.90
2012,01,23,12,23,4.40
2012,01,23,12,24,8.90
2012,01,23,12,25,11.00
2012,01,23,12,26,7.00
2012,01,23,12,27,9.60
2012,01,23,12,28,8.60
2012,01,23,12,29,7.60
2012,01,23,12,30,10.90
2012,01,23,12,31,10.90
2012,01,23,12,32,11.00
2012,01,23,12,33,7.60
2012,01,23,12,34,7.20
2012,01,23,12,35,5.30
2012,01,23,12,36,6.40
2012,01,23,12,37,9.20
2012,01,23,12,38,9.30
2012,01,23,12,39,10.10
2012,01,23,12,40,8.90
2012,01,23,12,41,7.60
2012,01,23,12,42,7.00
2012,01,23,12,43,4.60
2012,01,23,12,44,6.50
2012,01,23,12,45,2.30
2012,01,23,12,46,6.00
2012,01,23,12,47,6.50
2012,01,23,12,48,4.70
2012,01,23,12,49,5.70
2012,01,23,12,50,3.00
2012,01,23,12,51,3.90
2012,01,23,12,52,7.20
2012,01,23,12,53,6.30
2012,01,23,12,54,7.80
2012,01,23,12,55,8.90
2012,01,23,12,56,4.20
2012,01,23,12,57,2.30
2012,01,23,12,58,5.70
2012,01,23,12,59,8.90
2012,01,23,13,00,7.70
2012,01,23,13,01,5.90
2012,01,23,13,02,7.70
2012,01,23,13,03,9.20
2012,01,23,13,04,6.00
2012,01,23,13,05,7.50
2012,01,23,13,06,12.90
2012,01,23,13,07,13.00
2012,01,23,13,08,8.20
2012,01,23,13,09,13.30
2012,01,23,13,10,13.70
2012,01,23,13,11,9.30
2012,01,23,13,12,8.50
2012,01,23,13,13,9.70
2012,01,23,13,14,12.20
2012,01,23,13,15,13.40
2012,01,23,13,16,13.00
2012,01,23,13,17,9.20
2012,01,23,13,18,6.60
2012,01,23,13,19,9.40
2012,01,23,13,20,8.40
2012,01,23,13,21,6.70
2012,01,23,13,22,8.00
2012,01,23,13,23,8.10
2012,01,23,13,24,7.30
2012,01,23,13,25,6.40
2012,01,23,13,26,10.30
2012,01,23,13,27,6.50
2012,01,23,13,28,9.40
2012,01,23,13,29,8.40
2012,01,23,13,30,10.90
2012,01,23,13,31,10.00
2012,01,23,13,32,10.70
2012,01,23,13,33,8.60
2012,01,23,13,34,9.10
2012,01,23,13,35,7.20
2012,01,23,13,36,10.90
2012,01,23,13,37,8.00
2012,01,23,13,38,5.10
2012,01,23,13,39,6.40
2012,01,23,13,40,5.10
2012,01,23,13,41,8.10
2012,01,23,13,42,7.10
2012,01,23,13,43,5.40
2012,01,23,13,44,3.80
2012,01,23,13,45,10.10
2012,01,23,13,46,7.50
2012,01,23,13,47,8.50
2012,01,23,13,48,5.80
2012,01,23,13,49,4.70
2012,01,23,13,50,8.10
2012,01,23,13,51,6.80
2012,01,23,13,52,4.00
2012,01,23,13,53,8.30
2012,01,23,13,54,8.60
2012,01,23,13,55,7.40
2012,01,23,13,56,8.70
2012,01,23,13,57,8.60
2012,01,23,13,58,13.30
2012,01,23,13,59,10.90
2012,01,23,14,00,9.30
2012,01,23,14,01,9.70
2012,01,23,14,02,10.30
2012,01,23,14,03,6.50
2012,01,23,14,04,9.30
2012,01,23,14,05,7.90
2012,01,23,14,06,7.70
2012,01,23,14,07,11.00
2012,01,23,14,08,11.00
2012,01,23,14,09,9.30
2012,01,23,14,10,8.60
2012,01,23,14,11,5.90
2012,01,23,14,12,9.30
2012,01,23,14,13,10.10
2012,01,23,14,14,8.40
2012,01,23,14,15,10.40
2012,01,23,14,16,15.00
2012,01,23,14,17,10.90
2012,01,23,14,18,13.00
2012,01,23,14,19,11.40
2012,01,23,14,20,13.50
2012,01,23,14,21,9.50
2012,01,23,14,22,6.40
2012,01,23,14,23,13.80
2012,01,23,14,24,13.40
2012,01,23,14,25,12.20
2012,01,23,14,26,11.00
2012,01,23,14,27,14.20
2012,01,23,14,28,16.30
2012,01,23,14,29,10.90
2012,01,23,14,30,13.20
2012,01,23,14,31,9.00
2012,01,23,14,32,12.60
2012,01,23,14,33,12.60
2012,01,23,14,34,10.50
2012,01,23,14,35,9.50
2012,01,23,14,36,10.20
2012,01,23,14,37,10.00
2012,01,23,14,38,9.20
2012,01,23,14,39,7.70
2012,01,23,14,40,8.30
2012,01,23,14,41,8.00
2012,01,23,14,42,7.20
2012,01,23,14,43,9.50
2012,01,23,14,44,13.50
2012,01,23,14,45,9.70
2012,01,23,14,46,13.40
2012,01,23,14,47,12.70
2012,01,23,14,48,11.90
2012,01,23,14,49,12.30
2012,01,23,14,50,12.40
2012,01,23,14,51,12.20
2012,01,23,14,52,10.20
2012,01,23,14,53,12.60
2012,01,23,14,54,13.00
2012,01,23,14,55,7.50
2012,01,23,14,56,8.50
2012,01,23,14,57,9.30
2012,01,23,14,58,13.50
2012,01,23,14,59,9.70
2012,01,23,15,00,9.60
2012,01,23,15,01,7.70
2012,01,23,15,02,7.60
2012,01,23,15,03,13.00
2012,01,23,15,04,11.60
2012,01,23,15,05,6.20
2012,01,23,15,06,6.90
2012,01,23,15,07,3.10
2012,01,23,15,08,5.10
2012,01,23,15,09,14.00
2012,01,23,15,10,7.40
2012,01,23,15,11,7.90
2012,01,23,15,12,4.80
2012,01,23,15,13,3.90
2012,01,23,15,14,8.50
2012,01,23,15,15,5.90
2012,01,23,15,16,5.60
2012,01,23,15,17,4.70
2012,01,23,15,18,5.00
2012,01,23,15,19,7.50
2012,01,23,15,20,7.40
2012,01,23,15,21,6.00
2012,01,23,15,22,4.40
2012,01,23,15,23,4.90
2012,01,23,15,24,1.40
2012,01,23,15,25,4.10
2012,01,23,15,26,6.00
2012,01,23,15,27,5.80
2012,01,23,15,28,1.30
2012,01,23,15,29,1.10
2012,01,23,15,30,1.60
2012,01,23,15,31,0.60
2012,01,23,15,32,0.00
2012,01,23,15,33,0.00
2012,01,23,15,34,0.00
2012,01,23,15,35,0.00
2012,01,23,15,36,0.00
2012,01,23,15,37,0.90
2012,01,23,15,38,0.00
2012,01,23,15,39,0.00
2012,01,23,15,40,0.00
2012,01,23,15,41,1.40
2012,01,23,15,42,3.30
2012,01,23,15,43,1.70
2012,01,23,15,44,0.00
2012,01,23,15,45,0.00
2012,01,23,15,46,2.40
2012,01,23,15,47,4.00
2012,01,23,15,48,3.50
2012,01,23,15,49,3.30
2012,01,23,15,50,5.10
2012,01,23,15,51,5.20
2012,01,23,15,52,5.20
2012,01,23,15,53,6.50
2012,01,23,15,54,4.60
2012,01,23,15,55,3.10
2012,01,23,15,56,6.00
2012,01,23,15,57,4.70
2012,01,23,15,58,1.80
2012,01,23,15,59,5.10
2012,01,23,16,00,5.90
2012,01,23,16,01,8.40
2012,01,23,16,02,4.70
2012,01,23,16,03,2.40
2012,01,23,16,04,0.00
2012,01,23,16,05,0.00
2012,01,23,16,06,4.40
2012,01,23,16,07,5.60
2012,01,23,16,08,5.30
2012,01,23,16,09,5.00
2012,01,23,16,10,3.30
2012,01,23,16,11,3.50
2012,01,23,16,12,4.70
2012,01,23,16,13,5.30
2012,01,23,16,14,4.70
2012,01,23,16,15,6.30
2012,01,23,16,16,7.40
2012,01,23,16,17,5.60
2012,01,23,16,18,5.10
2012,01,23,16,19,4.40
2012,01,23,16,20,4.20
2012,01,23,16,21,3.50
2012,01,23,16,22,4.10
2012,01,23,16,23,1.70
2012,01,23,16,24,0.10
2012,01,23,16,25,1.60
2012,01,23,16,26,1.50
2012,01,23,16,27,2.90
2012,01,23,16,28,2.20
2012,01,23,16,29,1.50
2012,01,23,16,30,2.10
2012,01,23,16,31,6.40
2012,01,23,16,32,5.30
2012,01,23,16,33,3.20
2012,01,23,16,34,4.30
2012,01,23,16,35,2.80
2012,01,23,16,36,2.70
2012,01,23,16,37,1.50
2012,01,23,16,38,0.00
2012,01,23,16,39,0.30
2012,01,23,16,40,3.80
2012,01,23,16,41,4.60
2012,01,23,16,42,4.10
2012,01,23,16,43,6.90
2012,01,23,16,44,5.40
2012,01,23,16,45,6.10
2012,01,23,16,46,6.20
2012,01,23,16,47,8.80
2012,01,23,16,48,7.10
2012,01,23,16,49,5.70
2012,01,23,16,50,3.80
2012,01,23,16,51,2.50
2012,01,23,16,52,1.30
2012,01,23,16,53,2.90
2012,01,23,16,54,2.60
2012,01,23,16,55,3.20
2012,01,23,16,56,5.60
2012,01,23,16,57,5.60
2012,01,23,16,58,4.10
2012,01,23,16,59,0.50
2012,01,23,17,00,0.00
2012,01,23,17,01,0.50
2012,01,23,17,02,3.30
2012,01,23,17,03,0.70
2012,01,23,17,04,0.70
2012,01,23,17,05,2.60
2012,01,23,17,06,0.10
2012,01,23,17,07,0.00
2012,01,23,17,08,0.00
2012,01,23,17,09,1.60
2012,01,23,17,10,1.90
2012,01,23,17,11,0.60
2012,01,23,17,12,0.60
2012,01,23,17,13,0.00
2012,01,23,17,14,1.80
2012,01,23,17,15,0.00
2012,01,23,17,16,0.00
2012,01,23,17,17,0.20
2012,01,23,17,18,3.50
2012,01,23,17,19,0.10
2012,01,23,17,20,0.50
2012,01,23,17,21,1.40
2012,01,23,17,22,1.10
2012,01,23,17,23,0.20
2012,01,23,17,24,0.00
2012,01,23,17,25,0.00
2012,01,23,17,26,1.40
2012,01,23,17,27,0.00
2012,01,23,17,28,0.60
2012,01,23,17,29,0.00
2012,01,23,17,30,0.00
2012,01,23,17,31,0.00
2012,01,23,17,32,0.00
2012,01,23,17,33,0.00
2012,01,23,17,34,0.00
2012,01,23,17,35,0.00
2012,01,23,17,36,0.80
2012,01,23,17,37,0.00
2012,01,23,17,38,0.00
2012,01,23,17,39,0.00
2012,01,23,17,40,2.50
2012,01,23,17,41,1.60
2012,01,23,17,42,0.30
2012,01,23,17,43,1.40
2012,01,23,17,44,0.00
2012,01,23,17,45,0.00
2012,01,23,17,46,1.10
2012,01,23,17,47,1.60
2012,01,23,17,48,0.00
2012,01,23,17,49,0.00
2012,01,23,17,50,0.00
2012,01,23,17,51,0.00
2012,01,23,17,52,0.00
2012,01,23,17,53,0.00
2012,01,23,17,54,0.00
2012,01,23,17,55,0.00
2012,01,23,17,56,0.00
2012,01,23,17,57,0.00
2012,01,23,17,58,0.00
2012,01,23,17,59,0.00
2012,01,23,18,00,0.00